Wind_Speed
30 30 29 27 30 31 30 27 24 21 18 16 14 15 14 14 15 14 10 10 9 9 9 12 12 14 15 16 15 16 8 11 17 8 13 15 8 5 17 13 7 7 3 3 15
30 29 28 28 31 31 29 25 22 19 18 15 15 15 14 13 11 6 7 8 9 9 9 11 11 17 18 17 16 13 11 7 12 23 10 8 14 19 15 6 8 8 4 8 14
30 29 28 29 31 30 27 22 19 17 16 15 14 13 11 8 4 5 5 9 7 7 8 11 10 18 16 16 14 7 7 11 14 8 6 21 23 20 8 4 9 7 4 10 12
28 28 28 30 31 27 23 19 16 15 14 14 12 12 10 9 5 8 8 5 6 7 10 11 10 15 15 10 7 9 4 8 19 12 14 19 20 12 6 6 9 10 9 7 9
27 28 28 30 28 23 18 15 14 13 13 13 12 12 12 13 9 12 10 9 9 10 10 9 13 8 3 2 6 8 10 12 24 16 10 17 15 10 7 3 8 12 15 16 16
26 28 27 28 23 18 14 13 12 12 13 12 13 13 16 14 12 15 14 15 12 8 8 10 8 4 6 15 10 11 9 11 16 16 18 16 8 8 9 5 10 16 14 16 16
26 27 26 25 18 15 13 12 11 13 13 13 13 16 18 13 11 16 12 13 10 9 12 8 5 2 11 12 9 13 13 19 20 14 16 13 9 6 5 5 10 11 10 10 9
24 25 22 20 15 13 13 11 12 14 13 13 14 20 14 12 11 15 12 10 8 8 11 8 11 9 16 15 12 8 12 14 15 15 11 10 8 6 6 4 6 6 7 8 6
22 23 19 16 11 11 11 12 14 13 14 14 19 17 9 13 13 13 12 9 6 8 8 6 8 12 17 16 12 6 9 8 13 11 7 12 3 6 7 8 7 5 6 8 8
20 20 15 12 10 12 13 15 14 14 15 18 22 14 7 11 13 14 13 10 6 4 8 9 12 14 15 12 9 9 6 7 8 10 6 8 13 11 13 13 10 9 11 13 12
19 15 13 11 13 15 16 15 15 15 18 20 19 8 8 9 13 16 15 11 7 6 10 11 8 8 8 10 5 3 6 9 10 10 11 10 10 10 14 16 14 14 16 18 19
16 13 13 14 17 17 16 16 14 12 15 19 18 9 10 10 11 18 17 11 8 7 10 11 11 9 7 4 3 1 5 5 9 11 10 11 14 13 19 18 15 16 21 22 21
15 15 15 17 18 18 18 16 14 12 14 15 15 11 9 6 7 18 18 12 10 11 10 9 7 5 3 3 1 3 5 13 13 10 7 7 14 14 18 17 17 18 19 16 14
17 18 19 21 22 21 17 15 12 13 7 13 16 15 10 5 6 10 15 10 11 10 9 8 7 5 4 3 4 6 9 7 9 7 3 8 4 14 17 19 19 18 15 11 5
20 22 24 27 25 19 17 16 15 13 2 12 16 12 11 8 6 12 12 11 11 14 10 8 7 6 5 5 6 7 9 7 4 4 4 6 5 11 19 19 20 19 13 9 7
24 27 30 29 24 18 18 19 14 6 4 12 16 16 14 10 12 16 11 11 12 14 7 9 10 6 6 6 6 6 8 7 5 3 1 3 4 7 16 23 23 19 14 11 11
28 31 31 30 23 20 20 16 10 4 9 12 17 19 14 11 11 17 13 17 12 13 11 9 7 7 8 8 5 4 6 0 0 1 4 5 6 8 8 17 21 18 16 15 14
32 34 33 32 25 21 20 18 6 4 15 14 17 17 14 12 10 18 16 15 12 8 15 9 4 5 6 11 5 5 8 4 4 3 3 3 4 4 6 11 8 18 19 17 13
36 37 34 31 27 22 20 18 8 4 14 18 16 18 14 12 11 17 16 14 12 11 10 8 6 6 6 10 8 5 4 4 3 2 1 3 5 8 5 9 13 12 16 14 17
37 36 32 32 29 23 20 20 13 6 13 18 20 17 17 13 12 14 14 13 12 12 15 8 6 7 6 6 8 8 7 3 3 3 3 4 7 10 8 8 11 11 11 14 17
37 34 33 31 30 25 24 26 8 6 19 24 16 16 16 16 12 14 11 8 12 13 13 11 9 9 8 6 7 8 7 4 4 2 4 1 5 8 8 6 8 11 14 16 19
37 36 34 32 29 28 28 24 8 8 22 23 16 12 11 18 15 17 13 12 10 11 12 13 9 9 12 9 9 8 8 7 4 4 5 2 7 7 9 10 14 17 18 21 23
38 36 35 33 32 29 31 23 9 9 18 24 19 12 11 14 16 17 15 12 7 10 11 14 7 8 5 8 11 11 10 10 7 5 8 4 5 7 8 12 17 18 20 21 23
36 32 35 34 33 31 31 23 9 9 13 18 17 14 9 14 16 11 14 11 10 11 12 14 11 12 15 5 9 13 15 14 12 7 8 17 21 19 18 17 19 20 22 24 25
36 29 39 37 36 31 29 23 13 11 11 14 13 12 13 14 14 10 10 10 11 11 12 13 12 15 14 11 10 11 13 15 18 18 18 23 23 20 17 17 21 23 24 25 25
36 30 33 18 34 30 31 30 17 14 13 12 12 13 14 13 12 11 10 11 10 12 13 14 9 12 15 15 14 16 18 20 23 25 26 25 24 17 15 18 19 20 22 24 25
33 27 29 36 32 31 31 29 23 17 14 9 8 11 16 13 12 11 9 9 8 10 11 12 11 9 8 15 17 19 25 26 28 28 25 23 18 17 17 18 19 21 24 25 26
Wind_Direction
286 292 293 294 295 296 297 291 282 279 269 267 257 257 259 260 263 269 274 249 243 243 213 198 192 196 188 173 174 186 213 261 190 136 128 136 212 290 224 188 229 232 232 170 175
287 290 292 294 295 296 293 287 280 272 260 256 250 253 250 255 265 267 230 235 199 187 179 185 190 187 179 181 187 194 230 227 193 165 156 215 206 198 198 210 240 217 240 135 155
285 289 292 295 295 295 291 285 278 264 249 244 243 246 238 244 193 210 185 161 180 203 195 196 195 186 180 166 173 238 243 219 165 144 140 166 204 195 198 162 90 63 128 136 137
284 288 292 295 293 292 287 281 268 251 237 232 235 230 220 172 146 145 144 155 206 214 199 185 172 163 176 177 242 256 185 211 185 185 186 181 182 182 133 114 75 64 92 112 136
283 286 292 294 291 287 280 269 253 236 226 221 223 217 186 170 159 140 128 127 130 150 157 166 158 164 141 184 198 187 179 208 187 182 173 183 185 174 166 89 67 84 92 99 96
281 287 292 291 285 280 267 251 237 222 217 214 215 199 170 163 165 148 128 130 131 135 181 150 145 191 169 152 170 184 162 149 144 164 177 180 176 200 183 138 94 91 93 95 90
279 286 291 285 276 266 251 235 220 210 210 210 203 176 178 171 172 155 141 138 136 120 134 109 135 170 163 162 175 186 184 153 159 167 168 185 203 184 169 144 114 102 114 130 134
280 286 285 273 263 250 236 218 203 203 205 201 189 171 176 193 179 166 156 143 130 109 122 115 137 193 190 162 155 165 184 162 165 177 184 196 214 217 212 230 150 162 172 179 194
280 282 274 259 246 231 215 201 199 198 194 192 174 174 176 207 190 174 164 157 133 116 125 114 129 150 148 173 159 157 151 184 178 196 218 211 210 236 228 213 215 222 240 231 227
276 272 257 237 215 206 192 195 193 189 189 187 170 181 189 195 205 189 188 188 187 178 141 164 154 157 167 166 182 193 190 180 173 197 196 214 245 263 223 211 225 237 253 258 257
267 254 231 210 195 194 187 189 186 193 191 177 180 184 186 196 184 188 200 204 201 202 186 183 181 180 185 194 207 241 253 272 259 221 210 238 245 273 218 210 225 245 258 262 267
253 228 208 193 191 185 176 184 188 195 192 176 186 190 183 190 195 185 202 204 205 197 177 166 164 159 161 180 168 257 283 158 169 197 208 243 254 249 206 216 231 246 259 265 268
228 208 188 188 182 172 177 180 182 181 179 187 190 198 178 196 190 184 195 201 193 163 155 160 155 151 151 166 301 220 198 168 171 172 203 223 220 208 210 223 234 244 254 260 270
208 194 177 178 172 175 177 177 172 160 176 188 189 182 188 167 186 186 189 193 180 165 167 164 169 185 224 223 201 212 187 174 179 189 197 216 234 228 227 230 233 241 246 250 259
195 184 172 175 171 173 175 172 159 162 115 198 193 193 186 178 189 172 174 174 183 187 183 161 169 183 220 248 244 209 224 226 234 246 194 208 242 243 231 232 233 227 220 205 200
187 178 172 174 170 166 175 168 167 183 254 168 183 178 178 194 176 166 163 169 153 169 161 179 189 207 234 241 232 229 225 233 243 236 277 201 235 254 231 228 221 215 212 215 221
181 177 174 175 167 170 178 173 175 229 174 179 178 173 182 178 181 180 166 162 162 159 171 170 189 219 225 216 219 215 212 122 324 218 217 219 255 260 252 241 233 238 235 234 237
178 177 179 179 178 174 181 179 206 245 182 178 174 173 180 181 186 179 176 172 171 175 168 174 158 182 209 212 220 223 213 213 208 193 222 212 245 240 258 230 212 233 239 246 266
178 178 184 184 185 182 185 190 210 215 193 178 169 172 181 176 184 182 184 190 188 193 193 178 159 179 194 199 217 210 217 199 124 122 288 238 262 268 246 206 230 234 238 248 273
181 179 185 188 193 189 194 200 219 208 187 185 166 178 178 178 177 184 187 201 198 198 199 192 154 184 182 203 217 231 185 171 180 137 253 277 270 242 233 237 209 222 244 269 296
179 181 185 192 198 197 203 203 229 202 178 177 170 175 185 184 194 192 195 200 205 209 210 217 207 187 187 204 184 170 189 179 153 154 153 264 261 273 259 250 243 245 251 260 271
179 186 188 193 194 201 203 198 209 154 179 186 194 191 194 204 207 205 210 217 214 217 206 204 204 175 202 215 212 214 218 209 198 201 202 221 271 253 238 232 236 249 254 268 269
181 190 192 195 200 200 202 196 193 157 176 191 195 198 215 209 201 202 211 218 223 212 204 202 197 155 177 223 219 221 223 226 232 218 223 175 257 291 273 248 239 251 258 264 269
185 188 194 198 204 202 202 196 183 182 176 196 198 209 218 207 198 205 221 222 225 212 205 208 219 213 210 208 204 223 235 237 237 227 238 256 282 284 284 272 268 266 261 272 273
189 193 198 202 202 203 201 201 194 188 187 193 206 211 209 206 205 203 205 223 226 217 211 214 227 225 233 234 234 236 241 249 251 261 261 286 284 295 284 277 274 276 271 273 270
194 198 199 200 203 202 202 206 205 203 203 211 208 201 211 223 234 248 262 247 240 224 220 224 233 234 235 240 242 245 248 253 257 261 263 275 281 289 286 283 290 290 275 272 269
195 200 202 201 198 202 204 206 208 210 214 220 216 214 220 227 242 255 253 234 224 221 225 227 232 234 243 251 258 265 260 261 265 264 264 259 291 286 291 289 292 287 272 271 274
Height
3132 3131 3130 3128 3126 3123 3121 3120 3118 3119 3118 3120 3120 3121 3122 3122 3123 3123 3124 3125 3124 3125 3125 3126 3127 3130 3132 3134 3136 3139 3141 3140 3141 3144 3147 3149 3152 3154 3155 3154 3154 3156 3157 3157 3157
3128 3127 3125 3123 3121 3119 3117 3115 3114 3115 3116 3117 3117 3119 3120 3121 3122 3122 3123 3123 3123 3124 3125 3126 3126 3129 3131 3134 3137 3139 3141 3141 3142 3144 3149 3149 3153 3153 3156 3154 3155 3156 3156 3156 3159
3124 3123 3120 3118 3117 3114 3112 3110 3111 3111 3113 3114 3115 3117 3118 3120 3122 3121 3121 3123 3124 3125 3125 3125 3126 3128 3131 3133 3137 3139 3139 3141 3143 3147 3146 3145 3151 3154 3156 3156 3155 3155 3155 3157 3159
3119 3118 3115 3114 3113 3108 3107 3107 3107 3108 3110 3111 3113 3115 3117 3119 3124 3121 3122 3124 3123 3124 3125 3126 3128 3130 3133 3134 3138 3138 3138 3141 3141 3142 3145 3147 3152 3155 3157 3158 3156 3156 3157 3158 3161
3114 3114 3111 3109 3108 3104 3104 3104 3104 3106 3108 3109 3112 3114 3117 3120 3121 3122 3122 3123 3124 3125 3126 3128 3130 3132 3134 3135 3137 3136 3137 3136 3140 3143 3146 3150 3153 3156 3157 3157 3157 3158 3159 3160 3163
3110 3109 3107 3105 3103 3101 3101 3101 3102 3104 3106 3108 3111 3114 3117 3120 3120 3121 3123 3123 3124 3126 3127 3129 3131 3133 3133 3136 3137 3139 3138 3138 3141 3145 3148 3151 3154 3156 3157 3158 3159 3160 3161 3162 3164
3104 3104 3102 3101 3099 3098 3098 3099 3101 3103 3105 3108 3111 3113 3116 3120 3120 3122 3123 3124 3125 3126 3128 3129 3130 3132 3133 3135 3138 3140 3141 3142 3145 3147 3150 3153 3155 3156 3157 3158 3160 3161 3162 3162 3163
3100 3100 3098 3098 3096 3095 3096 3098 3100 3102 3104 3107 3111 3114 3117 3118 3120 3122 3124 3125 3126 3127 3128 3130 3132 3133 3133 3137 3139 3140 3142 3143 3146 3148 3150 3153 3154 3155 3156 3158 3160 3161 3161 3162 3162
3096 3096 3094 3095 3093 3094 3095 3097 3099 3101 3104 3107 3111 3114 3117 3118 3121 3122 3124 3126 3126 3127 3129 3131 3132 3133 3135 3137 3139 3140 3141 3143 3146 3147 3149 3151 3152 3153 3155 3157 3158 3159 3159 3160 3162
3092 3092 3091 3092 3091 3093 3094 3097 3099 3101 3104 3107 3111 3117 3117 3118 3119 3122 3124 3126 3127 3128 3131 3133 3134 3135 3136 3138 3139 3140 3142 3144 3145 3148 3149 3150 3151 3152 3153 3156 3157 3157 3157 3159 3160
3088 3088 3089 3089 3090 3093 3094 3097 3102 3104 3104 3108 3112 3114 3114 3116 3118 3121 3123 3125 3127 3129 3131 3132 3135 3135 3137 3138 3139 3139 3140 3140 3142 3146 3148 3149 3150 3150 3151 3154 3155 3156 3156 3157 3158
3085 3085 3086 3087 3090 3092 3094 3098 3101 3104 3106 3108 3110 3113 3114 3115 3117 3119 3123 3125 3126 3128 3130 3134 3134 3136 3136 3137 3138 3138 3139 3139 3141 3144 3147 3147 3149 3149 3150 3152 3153 3154 3155 3155 3155
3081 3083 3084 3087 3091 3093 3095 3098 3101 3103 3106 3109 3111 3113 3114 3116 3116 3117 3121 3123 3125 3128 3129 3130 3133 3134 3136 3136 3137 3138 3140 3140 3142 3143 3145 3147 3149 3148 3149 3150 3150 3151 3152 3153 3153
3079 3081 3082 3088 3093 3093 3096 3099 3102 3104 3108 3110 3111 3113 3114 3115 3116 3117 3119 3123 3124 3127 3129 3132 3133 3134 3135 3137 3139 3140 3141 3142 3142 3143 3145 3146 3146 3145 3147 3147 3147 3149 3150 3150 3152
3075 3079 3081 3088 3091 3095 3098 3100 3103 3106 3109 3110 3110 3112 3114 3116 3117 3118 3120 3123 3125 3127 3131 3132 3133 3135 3135 3137 3138 3140 3139 3140 3141 3142 3144 3145 3146 3142 3143 3144 3145 3146 3147 3149 3151
3073 3077 3080 3087 3092 3095 3097 3101 3105 3109 3105 3106 3108 3110 3113 3115 3116 3118 3121 3124 3125 3127 3129 3130 3132 3134 3135 3136 3137 3138 3139 3140 3141 3142 3142 3142 3143 3139 3139 3140 3142 3144 3146 3148 3149
3071 3076 3080 3087 3092 3094 3097 3102 3106 3105 3105 3105 3106 3109 3112 3114 3116 3118 3121 3122 3124 3127 3128 3130 3132 3134 3135 3136 3137 3138 3138 3140 3143 3144 3142 3141 3141 3137 3137 3139 3142 3145 3146 3147 3147
3068 3073 3079 3086 3090 3094 3097 3102 3103 3102 3102 3103 3105 3109 3113 3114 3116 3118 3120 3122 3124 3126 3128 3130 3133 3133 3134 3135 3137 3137 3138 3138 3140 3143 3139 3139 3138 3136 3136 3137 3140 3143 3144 3146 3146
3065 3071 3077 3084 3088 3093 3097 3099 3100 3100 3102 3102 3106 3109 3111 3114 3116 3117 3120 3122 3124 3126 3129 3129 3132 3132 3133 3134 3137 3136 3137 3138 3137 3139 3139 3138 3137 3135 3134 3135 3138 3140 3142 3143 3144
3063 3069 3076 3082 3087 3091 3095 3096 3098 3099 3100 3103 3105 3108 3110 3113 3115 3117 3119 3122 3123 3125 3127 3128 3130 3132 3132 3133 3135 3135 3137 3137 3137 3141 3139 3136 3134 3132 3132 3134 3135 3137 3139 3140 3140
3062 3068 3073 3079 3085 3088 3091 3095 3097 3097 3099 3103 3105 3106 3109 3112 3114 3116 3119 3121 3122 3124 3125 3127 3129 3132 3132 3133 3133 3135 3135 3135 3136 3136 3138 3140 3131 3128 3129 3131 3132 3134 3134 3135 3135
3058 3064 3070 3076 3082 3084 3088 3093 3095 3096 3099 3102 3105 3107 3109 3111 3113 3115 3118 3120 3121 3122 3124 3125 3127 3128 3131 3131 3132 3132 3132 3133 3133 3135 3135 3135 3129 3126 3127 3128 3130 3130 3130 3131 3131
3055 3061 3067 3073 3077 3081 3087 3092 3094 3096 3098 3101 3104 3106 3108 3110 3113 3115 3117 3119 3119 3120 3122 3124 3125 3127 3130 3132 3130 3129 3130 3130 3130 3131 3131 3132 3126 3125 3126 3126 3127 3128 3127 3126 3125
3055 3059 3065 3069 3074 3079 3084 3090 3092 3094 3097 3100 3103 3105 3107 3108 3110 3112 3115 3116 3117 3118 3120 3121 3122 3123 3124 3124 3125 3126 3126 3127 3127 3128 3126 3123 3122 3123 3123 3123 3123 3122 3122 3122 3121
3050 3054 3059 3063 3070 3076 3083 3088 3091 3093 3095 3098 3101 3103 3105 3107 3109 3111 3113 3114 3115 3116 3117 3119 3120 3121 3121 3121 3122 3122 3123 3123 3123 3123 3122 3119 3118 3119 3119 3119 3119 3119 3118 3117 3116
3048 3052 3056 3063 3069 3074 3080 3084 3088 3091 3094 3097 3100 3102 3104 3106 3109 3110 3111 3112 3113 3114 3115 3116 3117 3118 3118 3119 3119 3119 3119 3119 3118 3117 3115 3115 3114 3115 3115 3114 3113 3112 3112 3111 3111
3046 3051 3057 3062 3065 3071 3075 3082 3087 3090 3094 3096 3098 3100 3102 3105 3106 3107 3109 3109 3110 3111 3112 3114 3115 3116 3116 3116 3116 3115 3112 3113 3112 3110 3111 3110 3112 3110 3109 3109 3108 3107 3107 3106 3105